Lapse_Rate
6.3 6.4 6.7 6.4 6.3 6.5 6.6 7.2 6.9 6.8 6.9 7.1 7.0 6.9 7.1 7.1 6.8 6.6 6.5 7.0 7.1 7.0 7.1 7.3 7.3 7.2 7.3 7.3 7.2 7.2 7.0 6.8 6.6 6.5 6.4 6.3 6.1 6.1 6.1 6.2 6.1 6.0 5.7 5.3 5.4 5.4 5.4 6.1 5.9
6.4 6.3 6.5 6.6 6.4 6.2 6.8 7.3 7.0 7.0 7.0 7.2 7.1 6.7 6.9 6.9 6.4 6.2 6.6 6.4 6.7 6.8 7.0 7.1 7.1 7.2 7.2 7.2 7.3 7.2 7.1 6.8 6.7 6.6 6.2 6.1 5.7 5.7 5.9 6.0 6.0 5.8 5.2 5.1 5.4 5.5 5.3 6.0 6.0
6.2 6.2 6.2 6.2 6.1 6.5 6.7 6.9 6.8 6.8 6.8 6.8 6.9 6.8 6.6 6.9 6.4 6.6 6.8 6.2 6.6 6.7 7.0 7.0 6.9 6.9 7.1 7.2 7.3 7.2 7.2 7.0 6.7 6.4 6.2 6.0 5.9 5.8 5.7 5.6 5.6 5.2 5.3 5.2 5.3 5.2 5.7 5.9 6.0
6.2 6.1 6.1 6.0 6.2 6.7 6.6 6.5 6.8 6.8 6.7 6.8 6.7 6.5 6.5 6.7 6.3 6.9 6.9 6.5 6.6 6.6 6.7 6.9 6.7 6.7 6.9 7.1 7.2 7.2 7.1 7.1 6.8 6.6 6.2 6.1 5.9 5.8 5.4 5.2 5.4 5.3 5.3 5.5 5.7 5.9 6.0 6.0 6.0
6.2 6.3 6.3 6.6 6.6 6.6 6.5 6.4 6.7 6.8 6.8 6.8 6.7 6.5 6.6 6.1 6.3 6.3 6.5 6.3 6.3 6.6 6.5 6.8 6.6 6.7 6.7 6.8 6.9 7.0 7.1 7.0 6.8 6.7 6.5 6.3 6.0 5.8 5.6 5.5 5.3 5.3 5.4 5.6 5.8 5.9 6.1 6.2 6.1
6.2 6.1 6.1 6.3 6.7 6.6 6.5 6.4 6.5 6.5 6.6 6.3 6.3 6.5 6.5 6.8 6.4 6.2 6.3 6.3 6.0 6.6 6.7 6.6 6.7 6.6 6.7 6.7 6.6 6.8 6.8 6.8 6.7 6.7 6.4 6.4 6.1 5.9 5.5 5.5 5.5 5.7 5.6 5.7 5.8 5.9 6.0 6.2 6.2
6.1 6.1 6.3 6.3 6.7 6.9 6.6 6.4 6.5 6.5 6.7 6.6 6.0 6.0 6.1 6.2 6.3 6.6 6.3 6.3 6.0 6.1 6.7 6.6 6.5 6.6 6.7 6.7 6.6 6.6 6.7 6.7 6.7 6.6 6.5 6.3 6.3 6.1 5.7 5.4 5.3 5.8 5.8 5.7 5.8 5.9 6.0 6.0 6.2
6.1 5.8 5.9 6.4 6.7 6.4 6.3 6.3 6.4 6.5 6.6 6.4 6.2 6.0 6.2 6.5 6.5 6.6 6.3 6.3 6.3 6.3 6.6 6.5 6.4 6.4 6.5 6.6 6.6 6.5 6.4 6.5 6.5 6.4 6.4 6.4 6.3 6.1 5.9 5.6 5.7 5.8 5.8 5.8 5.8 5.9 6.1 6.1 6.1
6.0 5.6 6.4 6.5 6.4 6.4 6.3 6.4 6.4 6.6 6.7 6.6 6.4 6.3 6.4 6.4 6.5 6.6 6.4 6.2 6.2 6.3 6.7 6.6 6.4 6.4 6.4 6.3 6.4 6.5 6.4 6.4 6.3 6.4 6.4 6.4 6.4 6.2 6.1 5.8 5.9 5.8 5.9 5.9 5.9 5.9 6.0 6.0 6.1
5.9 5.9 6.4 6.6 6.1 6.1 6.3 6.2 6.1 6.3 6.6 6.9 6.7 6.7 6.6 6.5 6.5 6.5 6.5 6.6 6.4 6.3 6.4 6.5 6.6 6.5 6.5 6.5 6.4 6.4 6.4 6.4 6.5 6.3 6.3 6.4 6.5 6.3 6.1 6.0 5.9 5.8 5.9 6.0 5.9 6.0 6.0 6.1 6.1
5.9 6.3 6.4 6.6 6.0 5.9 6.2 6.6 6.4 6.3 6.4 6.9 6.9 6.8 6.3 6.4 6.6 6.8 6.9 6.9 6.9 6.5 6.3 6.5 6.4 6.6 6.6 6.5 6.6 6.6 6.5 6.5 6.5 6.6 6.4 6.2 6.2 6.3 6.2 6.2 6.0 6.0 5.8 6.0 6.0 6.0 6.0 6.0 6.1
4.5 6.2 6.3 6.3 6.2 5.8 6.1 6.1 6.7 6.7 6.8 7.2 6.8 6.6 6.9 6.4 6.4 6.6 6.9 6.9 6.7 6.9 6.6 6.4 6.4 6.3 6.6 6.6 6.5 6.4 6.7 6.5 6.5 6.5 6.5 6.3 6.0 6.0 6.1 6.2 6.0 6.0 6.0 6.0 6.1 6.1 6.0 5.9 6.0
4.9 5.5 5.3 5.3 5.9 6.8 6.1 6.0 6.3 6.2 7.3 7.4 6.8 6.9 6.9 6.8 6.4 6.3 6.5 6.8 6.9 6.8 6.8 6.8 6.7 6.5 6.4 6.5 6.7 6.5 6.4 6.5 6.4 6.4 6.5 6.4 6.2 6.0 6.0 6.1 6.0 6.0 6.0 6.1 6.0 6.1 6.2 6.1 6.0
4.9 4.7 4.7 4.9 5.9 5.8 5.9 6.1 5.3 6.3 7.4 6.7 7.0 7.0 7.0 6.9 6.7 6.4 6.2 6.3 6.4 6.6 7.0 7.0 6.7 6.8 6.9 6.5 6.4 6.5 6.5 6.4 6.3 6.4 6.4 6.3 6.3 6.2 6.2 6.1 5.9 5.8 5.9 6.1 6.1 6.0 6.2 6.2 6.1
4.8 4.7 4.7 5.5 6.0 5.4 5.7 5.1 5.9 6.4 6.3 6.3 6.3 6.4 6.5 6.4 6.3 6.3 6.3 6.5 6.5 6.8 6.6 6.7 6.6 6.5 6.6 7.0 6.5 6.2 6.4 6.4 6.3 6.0 6.2 6.3 6.1 6.2 6.3 6.3 6.1 6.0 5.9 6.0 6.0 6.1 6.3 6.3 6.3
4.5 4.4 4.5 5.1 5.4 5.7 5.5 4.8 5.8 5.8 5.9 6.1 6.0 6.3 6.1 6.0 6.1 6.0 6.1 6.3 6.4 6.6 6.9 6.8 6.6 6.4 6.4 6.8 7.1 6.6 6.2 6.4 6.5 6.4 6.1 6.5 6.2 6.2 6.2 6.3 6.2 6.1 5.8 5.8 5.9 6.2 6.1 6.1 6.2
4.6 4.4 4.4 4.2 4.6 5.3 5.3 4.7 5.2 5.4 5.3 5.5 5.7 6.0 6.0 6.0 6.2 6.2 6.3 6.2 6.1 6.3 6.3 6.6 6.8 7.1 6.7 6.7 6.9 6.9 6.5 6.1 6.3 6.5 6.2 6.2 6.3 6.4 6.3 6.2 6.2 6.1 5.7 5.4 5.7 6.0 6.1 5.9 5.9
3.9 3.9 3.9 3.9 4.1 4.6 5.2 4.7 4.8 4.9 5.2 5.3 5.4 5.4 5.9 6.1 5.5 5.4 5.6 5.5 5.5 5.9 6.0 6.3 6.2 6.5 6.8 6.7 6.7 6.6 6.4 6.3 6.0 6.0 6.3 6.3 6.3 6.3 6.4 6.2 6.1 5.9 5.7 5.6 5.7 5.9 5.9 5.5 5.7
4.1 3.9 3.6 3.5 3.7 3.8 4.0 4.2 4.7 5.1 5.4 5.5 5.7 5.5 5.2 4.8 4.9 5.3 5.4 5.5 5.6 5.6 6.0 6.2 5.7 5.8 6.3 6.5 6.3 6.7 6.7 6.7 6.6 6.4 6.2 6.8 6.6 6.3 6.2 6.2 6.1 6.0 6.2 5.8 5.8 5.9 5.9 5.3 5.4
3.5 3.4 2.9 2.8 3.1 3.6 4.1 4.5 5.1 5.4 6.0 6.5 6.2 6.2 5.9 5.6 5.5 5.2 5.1 5.5 5.9 6.0 5.9 5.8 5.6 5.6 5.7 6.2 6.3 6.3 6.6 6.8 6.7 6.7 6.8 6.9 6.8 6.6 6.2 6.3 6.2 6.0 6.0 6.1 6.1 6.0 5.9 6.0 5.8
3.2 2.8 2.4 2.3 1.8 3.6 5.2 4.8 5.3 5.9 6.5 7.5 7.6 7.4 7.6 7.3 6.8 6.8 6.6 6.8 6.9 6.7 6.4 6.2 6.2 6.2 6.3 6.2 6.4 6.6 6.7 6.8 6.6 6.5 6.7 6.6 6.4 6.6 6.2 6.2 6.2 6.0 5.9 6.0 6.0 6.0 6.1 5.8 5.8
2.0 1.9 2.0 2.5 4.1 3.9 4.6 5.1 6.3 6.5 6.6 6.7 6.7 7.1 7.2 7.7 7.8 7.6 7.4 7.4 7.4 7.3 7.3 6.9 6.6 6.8 6.8 6.7 6.9 6.9 7.0 7.2 7.1 7.0 7.1 6.7 6.4 6.5 6.5 6.2 6.3 6.2 5.9 5.8 5.7 5.8 5.8 5.8 5.6
0.8 1.4 2.0 3.1 4.5 5.8 6.7 7.4 7.1 6.4 6.1 6.0 5.8 5.6 6.0 6.7 6.9 7.0 7.3 7.6 7.9 8.0 7.6 7.3 7.4 7.2 7.1 7.1 7.4 7.5 7.4 7.3 7.2 6.8 6.9 6.7 6.7 6.6 6.7 6.4 6.2 6.1 5.9 5.8 5.7 5.8 5.5 5.5 5.5
1.6 2.3 3.5 4.9 6.3 7.2 7.7 8.1 6.2 5.7 5.4 5.4 5.6 5.2 4.9 4.8 5.9 6.5 6.8 7.2 7.6 7.5 6.8 6.4 6.4 6.7 7.4 7.3 7.2 7.4 7.6 7.4 7.2 7.0 7.0 7.0 6.9 6.7 6.5 6.5 6.4 6.2 6.2 6.1 5.9 5.6 5.8 5.5 5.6
4.1 5.0 5.2 4.9 5.2 6.5 8.0 8.2 6.1 6.1 5.7 5.3 5.7 5.5 5.0 4.6 4.9 5.0 5.3 6.2 7.0 7.0 7.1 7.3 7.4 7.3 7.5 7.8 7.6 7.2 7.1 7.3 7.3 7.4 7.2 6.8 6.7 6.8 6.7 6.5 6.4 6.3 6.1 6.1 6.1 5.9 6.1 6.0 5.8
3.8 5.4 7.0 6.9 6.6 6.2 8.4 7.3 6.0 6.0 5.9 6.0 5.8 5.7 5.8 5.1 4.6 5.0 4.6 4.7 5.8 6.2 5.7 6.0 7.2 7.3 7.3 7.5 7.8 7.3 7.4 7.2 7.1 7.1 7.2 6.9 6.7 6.6 7.0 6.6 6.5 6.3 6.2 6.0 5.9 6.0 5.9 5.8 5.7
4.8 5.8 7.6 7.5 7.9 7.4 8.2 6.7 7.1 6.1 6.4 6.3 6.1 5.9 5.5 5.3 4.9 4.5 4.7 4.9 5.0 5.1 5.9 4.9 5.6 6.0 7.1 6.9 6.8 6.7 6.9 6.9 7.2 7.0 6.6 6.9 6.9 6.8 6.8 6.9 6.7 6.5 6.1 5.9 5.8 5.8 5.8 5.7 5.5
6.5 7.6 7.9 8.1 7.4 8.4 7.3 6.3 5.7 6.1 6.1 6.2 6.2 5.8 5.6 5.5 5.1 5.1 4.5 4.8 4.8 5.0 5.0 4.9 5.0 5.3 6.0 7.3 7.1 6.9 7.1 7.0 6.7 6.4 6.6 6.7 6.6 6.6 6.6 6.7 6.8 6.7 6.4 6.2 6.1 6.0 5.8 5.7 5.5
6.5 6.8 8.0 7.9 8.5 8.4 8.3 6.4 6.0 5.7 5.6 5.8 5.9 5.7 5.7 5.6 5.3 5.3 5.0 5.0 4.8 4.5 4.9 4.7 5.0 5.6 5.4 5.6 5.3 6.6 6.9 6.8 6.8 6.7 6.7 6.7 6.6 6.6 6.5 6.5 6.5 6.6 6.6 6.4 6.3 5.9 6.0 5.7 5.7
8.2 7.8 8.4 8.1 8.1 7.9 7.9 6.6 6.3 6.2 6.1 6.1 6.2 5.8 5.6 6.1 5.3 5.2 5.0 5.0 5.0 4.8 4.8 5.0 4.9 4.7 4.9 5.0 5.5 4.5 6.0 6.2 6.7 6.5 6.6 6.6 6.7 6.6 6.5 6.6 6.6 6.5 6.4 6.4 6.4 6.3 5.8 5.8 5.7
Wind_Speed
12 15 1 4 4 5 3 7 4 1 4 1 2 6 2 4 1 3 2 12 17 15 18 18 21 20 19 21 21 20 19 18 19 19 19 19 19 17 16 14 12 11 10 11 12 17 18 16 15
6 5 3 2 4 2 5 4 1 3 5 4 6 4 4 4 1 6 4 14 16 15 17 17 20 20 20 22 22 21 20 19 18 18 19 19 18 17 16 14 15 11 14 15 18 18 18 16 14
6 1 3 3 2 4 3 0 4 3 5 3 2 2 2 2 3 5 5 12 15 15 17 18 19 19 20 21 21 22 21 19 19 18 19 18 19 17 16 16 16 14 16 16 17 17 15 14 13
1 4 4 3 6 9 5 4 3 2 3 5 2 3 1 1 4 6 7 13 14 13 17 20 21 20 19 20 21 21 21 19 17 17 17 16 17 18 17 17 17 16 17 16 14 12 13 13 12
3 3 2 2 6 7 7 4 6 4 1 4 6 3 3 3 9 9 7 7 12 10 16 21 24 20 19 19 19 19 20 18 17 16 17 16 16 16 17 17 17 15 16 16 14 12 12 12 12
3 3 2 3 6 6 7 4 4 4 2 4 2 3 3 5 6 6 5 3 11 12 14 17 22 22 19 18 18 18 19 18 18 17 17 16 15 15 20 20 16 15 15 15 13 13 14 12 14
3 3 4 4 7 8 4 2 3 2 1 5 4 6 1 2 3 5 6 5 8 10 11 12 14 19 19 18 17 16 17 18 17 17 16 14 14 16 21 18 17 16 15 15 14 13 13 17 16
3 3 3 5 4 6 3 4 3 4 4 5 5 4 3 3 5 6 7 6 7 6 6 9 11 13 14 14 18 18 16 17 17 17 17 17 17 20 18 18 17 16 15 16 16 15 15 14 18
3 2 4 5 5 5 4 6 6 1 1 3 3 2 5 9 8 6 4 5 4 4 9 7 10 11 12 13 15 19 19 18 18 18 18 18 14 17 20 17 18 17 16 17 17 17 16 18 18
4 3 7 7 0 3 6 1 4 5 5 5 6 4 5 8 8 8 6 5 3 2 4 8 10 11 12 13 14 15 14 14 14 14 16 14 15 14 15 18 19 18 17 16 16 17 17 15 13
6 6 5 9 8 7 5 6 3 3 7 7 7 6 5 4 9 10 9 8 9 7 3 5 7 8 8 6 10 9 11 12 13 15 15 14 14 14 12 13 14 16 17 13 14 14 14 15 10
7 10 8 9 12 6 8 4 7 8 12 6 8 9 6 7 8 7 9 9 7 8 8 8 8 7 8 8 5 8 5 9 8 14 17 13 9 9 8 10 12 13 15 11 12 12 15 15 11
9 9 9 8 8 7 7 9 12 6 13 9 12 13 11 9 9 8 9 8 8 8 9 9 8 7 7 7 6 7 8 7 12 13 17 16 9 8 10 10 12 12 15 13 9 10 10 9 10
5 10 10 7 13 6 14 20 5 8 9 9 14 17 16 10 8 7 7 10 10 11 10 10 8 8 7 6 6 5 5 11 12 13 17 19 15 9 8 8 8 10 14 15 13 9 6 5 9
8 13 12 11 12 9 7 15 13 20 15 17 14 18 10 9 9 8 8 9 10 9 11 10 9 8 8 7 6 5 4 9 7 9 15 20 18 15 10 10 9 11 15 16 13 8 10 6 6
7 5 4 5 5 8 9 14 7 8 2 4 6 4 3 4 5 6 6 7 8 5 5 8 8 9 8 7 6 5 4 4 7 9 15 17 19 19 9 8 9 16 15 13 7 6 7 7 6
4 8 7 7 7 7 6 15 8 10 8 8 7 7 6 6 14 15 14 12 11 11 10 8 7 6 7 7 5 6 8 5 7 11 10 17 17 17 13 6 6 14 9 8 8 6 9 6 4
10 12 16 17 6 15 18 24 12 8 9 11 9 8 8 7 12 13 14 14 13 14 12 10 8 7 5 3 3 3 4 4 4 7 7 15 15 18 13 5 5 6 7 8 9 10 7 7 5
17 17 18 18 15 21 17 20 20 16 10 9 9 7 9 14 10 13 15 14 14 15 15 14 12 11 7 3 3 3 6 3 4 7 11 14 15 17 12 9 6 4 5 10 12 10 12 5 5
16 14 14 14 21 17 16 25 17 12 13 12 11 13 13 13 15 16 16 17 16 15 16 17 15 13 9 4 3 3 3 3 5 6 8 12 13 15 11 12 10 9 4 3 11 12 6 3 9
10 20 21 19 26 12 10 16 15 19 19 13 19 15 16 16 16 16 18 18 17 18 17 16 15 13 10 10 4 2 3 2 2 2 4 5 11 12 10 11 11 12 9 6 7 9 10 8 6
5 19 19 20 16 7 10 13 12 15 19 21 17 17 16 15 16 17 19 19 20 18 17 16 16 14 11 12 6 6 7 7 3 4 3 5 8 10 9 10 10 11 11 11 8 9 9 8 11
12 18 15 16 14 8 5 4 8 21 16 12 10 12 13 12 14 17 19 19 18 18 18 17 17 15 15 13 10 4 5 4 4 4 6 5 5 7 10 9 10 9 7 12 13 8 8 10 10
15 17 14 4 7 7 7 8 12 11 18 18 16 18 16 11 14 15 13 15 16 18 18 17 19 18 17 15 13 10 4 4 6 5 5 4 3 3 5 9 9 10 9 10 10 11 11 10 10
22 18 7 6 5 3 17 5 8 14 17 17 20 20 18 17 18 18 17 17 18 19 21 19 18 19 19 18 16 12 8 8 4 7 5 6 3 2 4 5 7 8 9 9 9 10 10 11 9
8 6 4 5 5 9 8 4 6 11 13 16 18 19 22 20 14 16 16 16 17 17 16 18 21 19 21 19 18 13 11 5 5 6 4 3 3 4 4 3 4 6 8 8 7 6 7 10 9
11 10 12 5 9 3 4 7 8 18 20 19 19 22 20 20 16 17 17 15 15 16 17 12 16 17 17 22 16 15 13 12 5 7 6 5 6 1 4 4 3 3 6 9 9 7 9 8 8
4 6 5 3 4 6 6 6 8 18 19 17 18 17 16 16 12 14 13 15 14 13 13 18 11 14 17 17 17 14 14 12 9 6 11 8 6 6 5 3 5 4 4 4 9 8 9 9 7
6 5 4 4 2 3 3 2 6 11 12 15 14 15 14 14 14 15 15 15 15 14 14 12 16 13 13 14 14 12 15 15 11 10 9 7 6 6 6 5 4 5 5 5 5 7 7 9 9
7 7 6 3 5 4 2 3 4 8 11 14 15 15 16 12 15 15 14 15 15 15 15 15 11 14 11 9 15 12 13 12 9 13 10 8 7 6 5 5 4 5 5 6 6 6 8 9 9
Wind_Direction
305 301 76 28 57 66 261 260 229 1 34 21 96 77 247 259 75 214 203 124 132 143 151 154 153 152 158 160 154 150 150 150 149 148 148 148 144 144 142 141 145 131 155 157 146 141 125 116 109
304 305 47 78 86 73 270 253 21 150 144 86 52 30 18 295 104 129 94 142 144 147 153 157 155 153 154 158 158 154 156 156 156 153 151 155 153 148 146 136 129 130 116 126 131 129 124 123 120
317 232 73 97 162 193 220 351 95 72 93 95 92 122 216 288 79 132 170 123 138 147 157 158 158 157 156 162 161 159 160 162 163 163 158 161 158 156 155 144 130 129 112 112 117 123 126 130 128
320 8 17 90 260 268 254 301 96 60 42 116 115 277 305 121 111 161 142 124 140 152 156 162 160 161 159 162 164 163 163 167 169 165 163 165 165 165 160 149 130 133 132 127 126 127 132 132 134
26 66 17 237 250 267 287 226 133 141 223 203 143 248 318 23 124 136 154 144 153 152 161 168 162 164 165 162 162 167 166 170 170 166 168 171 177 174 157 147 134 131 139 137 136 137 143 147 144
4 95 54 246 256 282 309 282 106 142 205 300 139 155 243 156 118 126 145 154 150 148 157 168 165 163 167 170 167 168 168 168 170 168 174 178 181 175 161 146 142 139 142 147 144 146 154 162 154
128 94 222 257 269 306 254 324 47 94 11 265 200 164 253 38 160 149 113 25 120 142 149 163 168 165 170 171 173 174 172 169 168 168 172 173 177 173 167 151 147 146 147 151 150 151 156 163 150
112 104 256 239 231 267 308 356 135 112 269 301 162 206 191 247 121 66 38 51 103 134 146 154 162 170 175 179 181 181 180 177 172 171 171 171 165 162 154 153 152 151 152 152 152 149 144 145 143
74 33 239 250 238 260 5 28 336 192 54 326 264 147 187 154 112 72 28 356 43 147 155 162 164 170 175 178 188 188 185 180 178 174 172 166 156 156 155 159 158 154 142 149 154 152 147 145 144
135 177 228 220 72 308 306 28 327 348 323 288 314 308 180 149 140 147 170 225 279 237 190 161 170 178 180 188 188 186 183 177 172 171 165 156 156 155 158 161 162 159 156 154 157 154 156 152 148
197 217 217 273 305 325 275 285 217 269 272 232 250 261 219 237 176 176 188 191 209 212 223 214 166 183 179 196 181 191 186 179 176 170 166 161 161 162 159 159 163 158 162 159 164 157 153 161 157
243 243 240 264 275 286 289 281 260 222 250 232 268 260 265 212 224 210 194 203 204 210 218 222 223 177 186 176 174 189 179 177 179 180 170 166 165 163 156 162 163 160 163 157 157 151 156 167 174
263 260 258 272 290 276 295 259 261 239 248 261 271 275 267 244 226 217 219 220 209 210 220 212 218 217 182 168 174 177 181 182 184 179 181 173 169 166 159 165 167 169 165 164 163 165 164 172 188
287 305 297 293 282 274 274 270 273 234 265 262 257 256 257 260 241 242 221 215 213 218 219 219 212 207 202 178 175 176 173 186 186 185 182 180 169 165 167 171 171 178 173 167 169 174 163 171 167
296 300 295 275 267 267 282 275 238 259 262 263 268 256 252 259 265 249 245 244 216 210 211 210 201 198 194 198 195 175 184 185 188 187 183 179 174 172 166 175 173 179 174 164 170 165 158 152 148
298 274 290 240 280 243 164 262 257 248 268 272 301 5 296 307 275 270 8 61 31 353 275 220 208 195 200 199 208 220 182 188 191 187 177 176 180 176 170 174 176 177 170 173 165 156 154 156 146
282 271 259 295 261 302 179 268 251 266 279 275 288 305 323 334 42 33 22 23 31 22 17 13 2 307 210 196 199 212 241 182 189 179 172 172 177 176 176 175 176 167 171 172 165 166 156 155 151
282 289 291 297 329 309 306 291 294 281 283 269 280 282 267 93 60 40 24 15 19 21 12 5 358 347 305 242 196 223 222 223 188 181 168 168 170 175 173 167 171 149 164 175 167 158 161 155 157
290 292 300 316 348 333 317 300 321 337 313 292 285 296 77 61 47 43 28 14 10 19 7 358 353 341 344 247 201 210 216 199 188 184 170 170 166 168 179 171 154 154 181 179 161 154 153 143 136
5 340 339 313 340 330 318 301 314 325 325 330 13 52 50 42 33 29 27 21 14 9 5 355 349 338 320 282 214 186 181 187 193 181 172 169 165 170 177 177 174 169 181 210 162 156 149 108 167
351 2 341 328 334 300 337 303 335 323 311 308 52 50 43 40 34 27 26 22 15 12 2 352 341 333 326 310 258 159 117 96 122 183 174 176 167 168 173 176 176 172 171 187 162 161 165 164 185
308 351 329 330 338 313 326 295 313 350 41 39 34 29 34 34 36 36 31 29 19 6 1 355 349 344 337 326 306 199 195 188 185 166 170 160 166 161 169 173 171 181 175 173 184 183 179 150 183
316 319 313 304 297 301 283 310 8 21 34 39 31 32 35 28 37 37 34 29 22 13 8 354 350 355 350 351 342 319 173 160 169 147 143 138 138 151 163 176 172 164 178 181 171 187 183 174 172
322 327 304 258 266 253 33 336 42 15 4 6 33 31 19 21 34 31 26 26 27 17 9 359 356 356 353 7 356 342 20 163 145 129 142 137 105 124 149 163 167 170 172 174 174 173 186 187 182
345 354 343 350 2 305 351 24 51 23 13 6 13 15 14 26 28 26 20 24 26 20 12 360 353 2 353 358 5 353 2 51 83 123 136 139 144 134 170 154 159 168 172 177 167 178 183 190 184
332 14 316 295 288 302 295 62 42 27 19 11 16 15 13 7 16 24 19 15 19 12 21 355 360 356 2 354 358 359 356 35 52 61 69 122 153 171 162 162 177 164 169 158 157 175 193 186 190
358 340 295 250 251 256 165 18 49 12 9 5 12 14 7 357 11 15 13 9 17 10 2 7 4 350 353 4 350 356 1 21 33 47 76 60 41 135 157 154 167 185 167 168 170 184 198 191 186
315 324 330 358 312 314 68 70 3 359 0 360 5 1 357 350 6 13 8 6 2 8 6 354 7 359 352 1 346 350 355 7 9 6 63 54 41 29 38 166 180 207 223 169 176 188 195 188 186
9 9 340 259 283 340 341 70 1 350 350 354 355 354 344 342 12 8 356 356 356 1 356 12 354 359 2 355 342 343 350 358 351 21 41 52 47 36 34 28 6 195 198 189 189 185 177 186 185
34 4 358 279 13 327 38 123 310 352 358 355 354 345 342 17 5 358 350 349 353 357 353 353 360 353 356 345 352 338 354 345 331 19 16 18 32 35 35 28 12 358 207 193 197 190 208 200 195